New Orleans Weather Page

Compiled by Joey Kelly

 

Want a detailed forecast?
Or want to check out the National Hurricane Center?
Or the National Weather Service's Southeast Louisiana page?

 

NOAA Weather: Moisant International Airport

Data is taken from the Aviation Weather Service at NOAA.

This is the current weather at New Orleans International Airport
in New Orleans, Louisiana, United States:

Temp: 71.6 F
Wind: 16.1 MPH
Wind direction: East at 080°, gusting to 26.5 MPH

Dewpoint: 66.2 F
Pressure: 30.04 inches of Mercury
Visibility: 10 Statute Miles
Sky: Solid Overcast at 1000ft
Weather: light drizzle

The raw METAR data is
KMSY 210153Z 08014G23KT 10SM -DZ OVC010 22/19 A3004 RMK AO2 PK WND 08033/0054


 

Southeast Louisiana Radar
Southeast Louisiana Radar

 

Gulf and Caribbean Radar
Gulf and Caribbean Radar

 

USA Radar
USA Radar

 

7-Day Forecast (WWL)
7-Day Forecast (WWL)

 

Southeast Louisiana Temperatures
Southeast Louisiana Temperatures

 

Southeastern U.S. Temperatures
Southeastern U.S. Temperatures

 

Infrared Tropical Satellite
Infrared Tropical Satellite

 

Atlantic Infrared Tropical Satellite
Atlantic Infrared Tropical Satellite

 

NHC 2-Day Weather Outlook
NHC 2-Day Weather Outlook

 

NHC Atlantic Tropical Cyclone Avtivity
NHC Atlantic Tropical Cyclone Avtivity

 

America and Atlantic Wind Patterns (interactive widget)

 


Other Weather Links:

National Hurricane Center
Louisiana Hurricane Season Notes